CSN3733 ZBAA-ZUUU

Flight info

Callsign CSN3733
Flight time 2h 28m
Altitude 34100
Route RUSDO6J RUSDO W45 VAGBI B215 GODON W43 SAVPA W276 ANRUG W279 ONEBA G212 SUBUL W230 AKDIK AKDIK9L
Aircraft A21N/M-SDE2E3FGHIRWXY/LB1

Departure

Time 2026-05-04 14:10
Airport Beijing Capital International Airport (ZBAA)

Arrival

Time 2026-05-04 16:39
Airport Chengdu Shuangliu International Airport (ZUUU)
Time Latitude Longitude Altitude Speed Heading
2026-05-04 12:52 40.07711 116.60157 121 ft 0 kts 26°
2026-05-04 13:52 40.07704 116.60153 122 ft 1 kts 28°
2026-05-04 13:52 40.07701 116.60151 122 ft 1 kts 29°
2026-05-04 13:53 40.07697 116.60148 123 ft 1 kts 30°
2026-05-04 13:53 40.07689 116.60142 116 ft 1 kts 34°
2026-05-04 13:54 40.07676 116.60129 123 ft 1 kts 45°
2026-05-04 13:54 40.07670 116.60121 118 ft 1 kts 51°
2026-05-04 13:54 40.07661 116.60104 122 ft 1 kts 62°
2026-05-04 13:55 40.07657 116.60095 121 ft 1 kts 68°
2026-05-04 13:55 40.07654 116.60086 121 ft 0 kts 74°
2026-05-04 13:59 40.07649 116.60111 122 ft 4 kts 115°
2026-05-04 14:00 40.07629 116.60146 122 ft 6 kts 130°
2026-05-04 14:00 40.07554 116.60262 121 ft 11 kts 131°
2026-05-04 14:00 40.07497 116.60314 123 ft 10 kts 156°
2026-05-04 14:01 40.07421 116.60336 121 ft 12 kts 173°
2026-05-04 14:01 40.07331 116.60350 121 ft 14 kts 173°
2026-05-04 14:01 40.07150 116.60378 122 ft 11 kts 174°
2026-05-04 14:02 40.07065 116.60391 122 ft 13 kts 173°
2026-05-04 14:02 40.06968 116.60407 121 ft 15 kts 173°
2026-05-04 14:02 40.06890 116.60463 122 ft 11 kts 92°
2026-05-04 14:02 40.06898 116.60558 119 ft 11 kts 85°
2026-05-04 14:03 40.06908 116.60672 122 ft 14 kts 83°
2026-05-04 14:03 40.06919 116.60790 122 ft 11 kts 83°
2026-05-04 14:03 40.06929 116.60901 121 ft 13 kts 83°
2026-05-04 14:03 40.06941 116.61032 121 ft 16 kts 83°
2026-05-04 14:04 40.06962 116.61279 123 ft 13 kts 83°
2026-05-04 14:04 40.06925 116.61370 119 ft 12 kts 175°
2026-05-04 14:04 40.06833 116.61383 119 ft 14 kts 174°
2026-05-04 14:05 40.06618 116.61413 121 ft 17 kts 173°
2026-05-04 14:05 40.06498 116.61435 119 ft 18 kts 173°
2026-05-04 14:05 40.06370 116.61456 120 ft 19 kts 173°
2026-05-04 14:06 40.06234 116.61476 120 ft 20 kts 173°
2026-05-04 14:06 40.06096 116.61495 120 ft 19 kts 173°
2026-05-04 14:06 40.05978 116.61516 122 ft 13 kts 168°
2026-05-04 14:06 40.05891 116.61534 121 ft 13 kts 171°
2026-05-04 14:07 40.05858 116.61541 123 ft 1 kts 165°
2026-05-04 14:07 40.05857 116.61545 123 ft 0 kts 132°
2026-05-04 14:07 40.05855 116.61549 121 ft 2 kts 129°
2026-05-04 14:07 40.05852 116.61568 123 ft 3 kts 95°
2026-05-04 14:08 40.05857 116.61605 120 ft 6 kts 78°
2026-05-04 14:08 40.05866 116.61668 120 ft 8 kts 72°
2026-05-04 14:08 40.05906 116.61730 123 ft 10 kts 44°
2026-05-04 14:08 40.05961 116.61754 120 ft 9 kts 353°
2026-05-04 14:09 40.06213 116.61719 121 ft 53 kts 353°
2026-05-04 14:09 40.06820 116.61619 120 ft 120 kts 354°
2026-05-04 14:10 40.09065 116.61267 522 ft 182 kts 354°
2026-05-04 14:10 40.10366 116.61068 1011 ft 195 kts 351°
2026-05-04 14:10 40.11738 116.60869 1588 ft 204 kts 353°
2026-05-04 14:10 40.13172 116.61276 2031 ft 225 kts 25°
2026-05-04 14:11 40.14514 116.62494 2426 ft 245 kts 41°
2026-05-04 14:11 40.16932 116.66189 2956 ft 290 kts 69°
2026-05-04 14:11 40.17406 116.68722 3041 ft 286 kts 89°
2026-05-04 14:12 40.17541 116.71331 3059 ft 288 kts 92°
2026-05-04 14:12 40.17670 116.73953 3418 ft 292 kts 90°
2026-05-04 14:12 40.18034 116.79286 5183 ft 293 kts 80°
2026-05-04 14:13 40.18885 116.81709 6025 ft 298 kts 50°
2026-05-04 14:13 40.20518 116.83345 6898 ft 298 kts 20°
2026-05-04 14:13 40.22531 116.84026 6954 ft 298 kts 358°
2026-05-04 14:13 40.24523 116.83580 6545 ft 289 kts 331°
2026-05-04 14:14 40.26229 116.82302 6501 ft 276 kts 328°
2026-05-04 14:14 40.30044 116.80780 6887 ft 288 kts 337°
2026-05-04 14:14 40.31721 116.79499 6895 ft 277 kts 311°
2026-05-04 14:15 40.32973 116.75086 6899 ft 263 kts 266°
2026-05-04 14:15 40.32898 116.70296 6891 ft 263 kts 266°
2026-05-04 14:16 40.32821 116.65508 6891 ft 262 kts 266°
2026-05-04 14:16 40.32784 116.63113 6892 ft 263 kts 266°
2026-05-04 14:17 40.32711 116.58302 7196 ft 266 kts 266°
2026-05-04 14:17 40.32672 116.55877 8050 ft 265 kts 268°
2026-05-04 14:17 40.32588 116.51029 9888 ft 268 kts 269°
2026-05-04 14:18 40.32546 116.48535 10460 ft 283 kts 269°
2026-05-04 14:18 40.32452 116.42963 11111 ft 323 kts 269°
2026-05-04 14:19 40.32349 116.36987 12564 ft 334 kts 270°
2026-05-04 14:19 40.32294 116.33922 13289 ft 339 kts 270°
2026-05-04 14:19 40.32239 116.30806 13956 ft 345 kts 270°
2026-05-04 14:19 40.32184 116.27661 14676 ft 346 kts 270°
2026-05-04 14:20 40.32128 116.24480 15307 ft 353 kts 270°
2026-05-04 14:20 40.32070 116.21249 15954 ft 356 kts 269°
2026-05-04 14:20 40.32010 116.17990 16619 ft 360 kts 269°
2026-05-04 14:21 40.31885 116.11406 17898 ft 368 kts 269°
2026-05-04 14:21 40.31821 116.08039 18493 ft 371 kts 269°
2026-05-04 14:21 40.31754 116.04647 19090 ft 373 kts 269°
2026-05-04 14:21 40.31560 116.01243 19674 ft 377 kts 259°
2026-05-04 14:22 40.30687 115.97984 20215 ft 383 kts 243°
2026-05-04 14:22 40.29103 115.95159 20748 ft 390 kts 226°
2026-05-04 14:22 40.26910 115.92997 21186 ft 399 kts 210°
2026-05-04 14:22 40.24440 115.91306 21737 ft 403 kts 208°
2026-05-04 14:23 40.19406 115.87951 22782 ft 409 kts 209°
2026-05-04 14:23 40.16861 115.86242 23302 ft 413 kts 209°
2026-05-04 14:23 40.14299 115.84515 23738 ft 417 kts 209°
2026-05-04 14:24 40.11712 115.82766 24150 ft 420 kts 209°
2026-05-04 14:24 40.09109 115.81005 24545 ft 424 kts 209°
2026-05-04 14:24 40.06474 115.79225 24935 ft 428 kts 209°
2026-05-04 14:24 40.03823 115.77435 25339 ft 431 kts 210°
2026-05-04 14:25 40.01147 115.75630 25732 ft 434 kts 210°
2026-05-04 14:25 39.95745 115.71989 26471 ft 442 kts 210°
2026-05-04 14:25 39.93003 115.70144 26837 ft 445 kts 210°
2026-05-04 14:26 39.90239 115.68286 27198 ft 449 kts 210°
2026-05-04 14:26 39.87464 115.66393 27537 ft 451 kts 213°
2026-05-04 14:26 39.84928 115.64002 27786 ft 450 kts 226°
2026-05-04 14:26 39.82858 115.60973 28113 ft 447 kts 238°
2026-05-04 14:27 39.81291 115.57500 28402 ft 446 kts 246°
2026-05-04 14:27 39.79844 115.53924 28718 ft 448 kts 246°
2026-05-04 14:27 39.78382 115.50326 29050 ft 451 kts 246°
2026-05-04 14:27 39.76907 115.46714 29362 ft 454 kts 246°
2026-05-04 14:28 39.75423 115.43081 29657 ft 457 kts 246°
2026-05-04 14:28 39.73959 115.39403 29952 ft 459 kts 247°
2026-05-04 14:28 39.72502 115.35695 30197 ft 462 kts 247°
2026-05-04 14:28 39.71038 115.31969 30481 ft 464 kts 247°
2026-05-04 14:29 39.68981 115.26766 30914 ft 465 kts 247°
2026-05-04 14:29 39.66040 115.19357 31531 ft 467 kts 247°
2026-05-04 14:30 39.64548 115.15610 31885 ft 467 kts 247°
2026-05-04 14:30 39.63057 115.11874 32229 ft 466 kts 247°
2026-05-04 14:30 39.60074 115.04405 32874 ft 466 kts 247°
2026-05-04 14:31 39.58578 115.00666 33139 ft 467 kts 247°
2026-05-04 14:31 39.55582 114.93197 33768 ft 467 kts 247°
2026-05-04 14:32 39.52587 114.85746 34006 ft 465 kts 247°
2026-05-04 14:32 39.49600 114.78334 34010 ft 464 kts 247°
2026-05-04 14:33 39.46612 114.70932 34017 ft 464 kts 247°
2026-05-04 14:33 39.43634 114.63575 34367 ft 464 kts 247°
2026-05-04 14:33 39.42135 114.59879 34669 ft 462 kts 247°
2026-05-04 14:34 39.40644 114.56208 34953 ft 461 kts 246°
2026-05-04 14:34 39.39156 114.52548 35214 ft 460 kts 246°
2026-05-04 14:34 39.37670 114.48897 35478 ft 458 kts 246°
2026-05-04 14:34 39.36185 114.45260 35743 ft 457 kts 246°
2026-05-04 14:35 39.34699 114.41629 35940 ft 456 kts 246°
2026-05-04 14:35 39.32220 114.35581 36030 ft 454 kts 246°
2026-05-04 14:36 39.28788 114.27201 36029 ft 454 kts 246°
2026-05-04 14:36 39.25723 114.20068 36032 ft 458 kts 238°
2026-05-04 14:37 39.22040 114.15094 36030 ft 469 kts 220°
2026-05-04 14:37 39.19264 114.12855 36034 ft 474 kts 208°
2026-05-04 14:37 39.16183 114.11315 36036 ft 477 kts 197°
2026-05-04 14:38 39.09799 114.09059 36013 ft 475 kts 198°
2026-05-04 14:38 39.03434 114.06794 35989 ft 474 kts 198°
2026-05-04 14:39 38.97050 114.04521 36018 ft 476 kts 198°
2026-05-04 14:39 38.90679 114.02264 36017 ft 475 kts 198°
2026-05-04 14:40 38.81113 113.98880 36018 ft 475 kts 198°
2026-05-04 14:40 38.74754 113.96635 36014 ft 473 kts 198°
2026-05-04 14:41 38.68398 113.94395 36016 ft 474 kts 198°
2026-05-04 14:42 38.55655 113.89917 36014 ft 475 kts 198°
2026-05-04 14:42 38.49281 113.87683 36027 ft 475 kts 198°
2026-05-04 14:43 38.42903 113.85452 36019 ft 474 kts 198°
2026-05-04 14:43 38.36887 113.82317 36014 ft 462 kts 217°
2026-05-04 14:44 38.32265 113.76792 36013 ft 453 kts 238°
2026-05-04 14:44 38.29306 113.69786 36026 ft 451 kts 248°
2026-05-04 14:45 38.26623 113.62642 36022 ft 449 kts 248°
2026-05-04 14:45 38.23912 113.55477 36024 ft 449 kts 248°
2026-05-04 14:46 38.21209 113.48355 36035 ft 447 kts 248°
2026-05-04 14:46 38.18499 113.41225 36032 ft 448 kts 248°
2026-05-04 14:47 38.15776 113.34067 36038 ft 450 kts 248°
2026-05-04 14:47 38.13104 113.26893 36034 ft 449 kts 248°
2026-05-04 14:48 38.10433 113.19712 36033 ft 450 kts 248°
2026-05-04 14:48 38.07761 113.12572 36040 ft 447 kts 248°
2026-05-04 14:49 38.05084 113.05434 36040 ft 449 kts 248°
2026-05-04 14:49 38.02950 112.99764 36041 ft 448 kts 248°
2026-05-04 14:50 38.01033 112.94675 36038 ft 449 kts 248°
2026-05-04 14:50 37.98357 112.87585 36042 ft 448 kts 248°
2026-05-04 14:51 37.95664 112.80470 36039 ft 449 kts 248°
2026-05-04 14:51 37.94308 112.76891 36150 ft 450 kts 248°
2026-05-04 14:51 37.92951 112.73313 36353 ft 450 kts 248°
2026-05-04 14:52 37.91608 112.69780 36597 ft 449 kts 248°
2026-05-04 14:52 37.90255 112.66226 36823 ft 448 kts 248°
2026-05-04 14:52 37.88906 112.62683 37051 ft 446 kts 248°
2026-05-04 14:52 37.87558 112.59147 37272 ft 445 kts 248°
2026-05-04 14:53 37.86170 112.55641 37461 ft 446 kts 246°
2026-05-04 14:53 37.84705 112.52189 37646 ft 445 kts 245°
2026-05-04 14:53 37.83220 112.48749 37838 ft 445 kts 245°
2026-05-04 14:53 37.81741 112.45316 37997 ft 444 kts 245°
2026-05-04 14:54 37.78812 112.38457 38045 ft 443 kts 246°
2026-05-04 14:54 37.75956 112.31581 38049 ft 441 kts 248°
2026-05-04 14:55 37.73329 112.24586 38049 ft 441 kts 249°
2026-05-04 14:55 37.70688 112.17592 38053 ft 441 kts 248°
2026-05-04 14:56 37.68019 112.10624 38038 ft 440 kts 248°
2026-05-04 14:56 37.65346 112.03679 38038 ft 439 kts 248°
2026-05-04 14:57 37.62672 111.96746 38035 ft 439 kts 248°
2026-05-04 14:57 37.60016 111.89874 38043 ft 439 kts 248°
2026-05-04 14:58 37.57339 111.82962 38031 ft 439 kts 248°
2026-05-04 14:58 37.54655 111.76054 38035 ft 439 kts 248°
2026-05-04 14:59 37.51954 111.69125 38059 ft 442 kts 247°
2026-05-04 15:00 37.46995 111.59228 38067 ft 447 kts 240°
2026-05-04 15:00 37.43511 111.52754 38054 ft 447 kts 240°
2026-05-04 15:01 37.38285 111.43043 38052 ft 447 kts 240°
2026-05-04 15:01 37.34790 111.36566 38055 ft 447 kts 240°
2026-05-04 15:02 37.31293 111.30101 38049 ft 447 kts 240°
2026-05-04 15:02 37.27793 111.23642 38046 ft 447 kts 240°
2026-05-04 15:03 37.24289 111.17187 38043 ft 447 kts 240°
2026-05-04 15:03 37.20780 111.10736 38025 ft 448 kts 240°
2026-05-04 15:04 37.17268 111.04291 38027 ft 447 kts 240°
2026-05-04 15:04 37.13773 110.97891 38018 ft 448 kts 240°
2026-05-04 15:05 37.10254 110.91458 38023 ft 448 kts 240°
2026-05-04 15:05 37.06731 110.85029 38002 ft 448 kts 240°
2026-05-04 15:06 37.03204 110.78609 38007 ft 447 kts 240°
2026-05-04 15:07 36.97931 110.68968 37997 ft 447 kts 241°
2026-05-04 15:07 36.94489 110.62488 37999 ft 447 kts 241°
2026-05-04 15:08 36.91039 110.56009 37986 ft 447 kts 240°
2026-05-04 15:08 36.87598 110.49584 37982 ft 448 kts 240°
2026-05-04 15:09 36.84130 110.43127 37985 ft 447 kts 240°
2026-05-04 15:09 36.80661 110.36677 37984 ft 447 kts 240°
2026-05-04 15:10 36.75451 110.27015 37980 ft 447 kts 240°
2026-05-04 15:11 36.70231 110.17363 37987 ft 448 kts 240°
2026-05-04 15:11 36.66773 110.10985 37965 ft 447 kts 240°
2026-05-04 15:12 36.63294 110.04579 37965 ft 447 kts 240°
2026-05-04 15:12 36.59811 109.98176 37966 ft 446 kts 240°
2026-05-04 15:13 36.56325 109.91782 37975 ft 446 kts 240°
2026-05-04 15:13 36.52836 109.85392 37977 ft 447 kts 240°
2026-05-04 15:14 36.49336 109.78995 37981 ft 447 kts 240°
2026-05-04 15:14 36.45831 109.72602 37984 ft 448 kts 240°
2026-05-04 15:15 36.42319 109.66208 37987 ft 448 kts 240°
2026-05-04 15:15 36.38802 109.59816 37991 ft 449 kts 240°
2026-05-04 15:16 36.33509 109.50219 37997 ft 450 kts 240°
2026-05-04 15:17 36.27645 109.41099 38003 ft 458 kts 226°
2026-05-04 15:17 36.22382 109.36538 37996 ft 468 kts 211°
2026-05-04 15:17 36.19444 109.34777 38003 ft 469 kts 210°
2026-05-04 15:18 36.13560 109.31266 38007 ft 470 kts 210°
2026-05-04 15:19 36.04781 109.26014 38006 ft 466 kts 210°
2026-05-04 15:19 35.96053 109.20808 38007 ft 466 kts 210°
2026-05-04 15:20 35.90215 109.17330 37994 ft 466 kts 210°
2026-05-04 15:20 35.84370 109.13918 38008 ft 466 kts 206°
2026-05-04 15:21 35.78269 109.11151 37997 ft 468 kts 204°
2026-05-04 15:22 35.69079 109.07072 38004 ft 468 kts 204°
2026-05-04 15:22 35.59890 109.02993 38015 ft 468 kts 204°
2026-05-04 15:23 35.53753 109.00274 38022 ft 469 kts 204°
2026-05-04 15:23 35.47611 108.97558 38028 ft 469 kts 204°
2026-05-04 15:24 35.36348 108.92588 38036 ft 470 kts 204°
2026-05-04 15:25 35.30201 108.89882 38041 ft 471 kts 204°
2026-05-04 15:26 35.20951 108.85819 38030 ft 470 kts 204°
2026-05-04 15:26 35.11718 108.81773 38031 ft 470 kts 204°
2026-05-04 15:27 35.02487 108.77736 38017 ft 470 kts 204°
2026-05-04 15:28 34.93258 108.73712 38022 ft 470 kts 204°
2026-05-04 15:29 34.84018 108.69690 38020 ft 469 kts 204°
2026-05-04 15:30 34.62498 108.60364 38004 ft 470 kts 205°
2026-05-04 15:31 34.53266 108.56378 37999 ft 469 kts 205°
2026-05-04 15:32 34.37875 108.49754 37979 ft 469 kts 205°
2026-05-04 15:34 34.22498 108.43163 37988 ft 469 kts 205°
2026-05-04 15:34 34.13266 108.39219 38003 ft 469 kts 205°
2026-05-04 15:35 34.04025 108.35279 38026 ft 470 kts 205°
2026-05-04 15:36 33.94765 108.31336 38055 ft 470 kts 205°
2026-05-04 15:36 33.88600 108.28715 38056 ft 469 kts 205°
2026-05-04 15:37 33.82430 108.26102 38074 ft 470 kts 205°
2026-05-04 15:37 33.76253 108.23491 38112 ft 471 kts 205°
2026-05-04 15:38 33.70068 108.20879 38114 ft 471 kts 205°
2026-05-04 15:38 33.63885 108.18263 38128 ft 471 kts 205°
2026-05-04 15:39 33.57701 108.15662 38133 ft 471 kts 205°
2026-05-04 15:40 33.48411 108.11760 38123 ft 470 kts 205°
2026-05-04 15:40 33.42384 108.08849 38123 ft 462 kts 215°
2026-05-04 15:41 33.37149 108.04627 38117 ft 453 kts 224°
2026-05-04 15:41 33.32277 107.99898 38121 ft 450 kts 226°
2026-05-04 15:42 33.27450 107.95112 38109 ft 452 kts 226°
2026-05-04 15:42 33.22603 107.90331 38109 ft 452 kts 226°
2026-05-04 15:43 33.17767 107.85553 38106 ft 451 kts 226°
2026-05-04 15:43 33.12933 107.80788 38108 ft 449 kts 226°
2026-05-04 15:44 33.08107 107.76041 38107 ft 449 kts 226°
2026-05-04 15:44 33.03275 107.71296 38114 ft 452 kts 226°
2026-05-04 15:45 32.98418 107.66532 38119 ft 452 kts 226°
2026-05-04 15:45 32.93559 107.61776 38102 ft 451 kts 226°
2026-05-04 15:46 32.88723 107.57050 38127 ft 449 kts 226°
2026-05-04 15:46 32.83906 107.52323 38131 ft 448 kts 228°
2026-05-04 15:47 32.79598 107.47084 38127 ft 439 kts 237°
2026-05-04 15:47 32.75987 107.41286 38144 ft 436 kts 240°
2026-05-04 15:48 32.72430 107.35432 38145 ft 437 kts 240°
2026-05-04 15:48 32.67112 107.26720 38143 ft 437 kts 240°
2026-05-04 15:49 32.63527 107.20874 38142 ft 438 kts 240°
2026-05-04 15:49 32.59937 107.15039 38144 ft 437 kts 240°
2026-05-04 15:50 32.56357 107.09225 38148 ft 437 kts 240°
2026-05-04 15:50 32.52771 107.03392 38138 ft 438 kts 240°
2026-05-04 15:51 32.49202 106.97606 38153 ft 431 kts 240°
2026-05-04 15:51 32.45651 106.91850 38138 ft 434 kts 240°
2026-05-04 15:52 32.42093 106.86078 38148 ft 434 kts 240°
2026-05-04 15:52 32.38523 106.80330 38138 ft 433 kts 240°
2026-05-04 15:53 32.35078 106.74534 38141 ft 427 kts 245°
2026-05-04 15:53 32.32443 106.68302 38125 ft 423 kts 255°
2026-05-04 15:54 32.30725 106.61711 38113 ft 416 kts 261°
2026-05-04 15:54 32.29325 106.55153 38143 ft 410 kts 261°
2026-05-04 15:55 32.27908 106.48596 38139 ft 413 kts 261°
2026-05-04 15:55 32.26484 106.42032 38132 ft 411 kts 261°
2026-05-04 15:56 32.25060 106.35485 38132 ft 412 kts 261°
2026-05-04 15:56 32.23640 106.28972 38132 ft 413 kts 261°
2026-05-04 15:57 32.22177 106.22391 38132 ft 415 kts 259°
2026-05-04 15:57 32.20111 106.16000 38119 ft 420 kts 251°
2026-05-04 15:58 32.17228 106.09933 38131 ft 427 kts 244°
2026-05-04 15:58 32.14036 106.04017 38116 ft 427 kts 244°
2026-05-04 15:59 32.10867 105.98128 38100 ft 422 kts 245°
2026-05-04 15:59 32.07716 105.92275 38106 ft 424 kts 245°
2026-05-04 16:00 32.04573 105.86446 38110 ft 423 kts 245°
2026-05-04 16:00 32.01408 105.80589 38108 ft 424 kts 245°
2026-05-04 16:01 31.98239 105.74735 38105 ft 424 kts 245°
2026-05-04 16:01 31.95079 105.68909 38067 ft 421 kts 245°
2026-05-04 16:02 31.91943 105.63109 38079 ft 422 kts 245°
2026-05-04 16:03 31.87143 105.54301 38100 ft 427 kts 245°
2026-05-04 16:03 31.83939 105.48429 38099 ft 427 kts 245°
2026-05-04 16:04 31.80737 105.42567 38101 ft 426 kts 245°
2026-05-04 16:04 31.77532 105.36706 37731 ft 427 kts 245°
2026-05-04 16:04 31.75923 105.33760 37024 ft 431 kts 245°
2026-05-04 16:05 31.74293 105.30768 35954 ft 440 kts 245°
2026-05-04 16:05 31.72621 105.27704 34887 ft 451 kts 245°
2026-05-04 16:05 31.69211 105.21497 33389 ft 453 kts 244°
2026-05-04 16:06 31.67522 105.18413 32926 ft 446 kts 245°
2026-05-04 16:06 31.63299 105.10460 32143 ft 419 kts 246°
2026-05-04 16:07 31.61277 105.06632 31477 ft 415 kts 245°
2026-05-04 16:07 31.56747 104.98102 29922 ft 407 kts 245°
2026-05-04 16:08 31.55252 104.95298 29405 ft 403 kts 245°
2026-05-04 16:08 31.50856 104.87078 27924 ft 391 kts 245°
2026-05-04 16:09 31.47986 104.81708 26670 ft 392 kts 245°
2026-05-04 16:09 31.45089 104.76297 25580 ft 389 kts 244°
2026-05-04 16:10 31.42235 104.70963 24596 ft 384 kts 245°
2026-05-04 16:11 31.38096 104.63013 23125 ft 378 kts 245°
2026-05-04 16:11 31.36734 104.60406 22653 ft 374 kts 244°
2026-05-04 16:12 31.32711 104.52723 21210 ft 364 kts 244°
2026-05-04 16:12 31.28791 104.45256 19862 ft 355 kts 243°
2026-05-04 16:13 31.26652 104.41187 19146 ft 351 kts 243°
2026-05-04 16:13 31.24230 104.36310 18314 ft 342 kts 248°
2026-05-04 16:14 31.22136 104.31342 17311 ft 339 kts 247°
2026-05-04 16:14 31.20054 104.26432 16363 ft 336 kts 246°
2026-05-04 16:15 31.16963 104.19165 15041 ft 329 kts 245°
2026-05-04 16:16 31.14928 104.14393 14161 ft 327 kts 244°
2026-05-04 16:16 31.11914 104.07341 12886 ft 319 kts 244°
2026-05-04 16:17 31.09949 104.02749 12076 ft 313 kts 244°
2026-05-04 16:18 31.07064 103.96019 10880 ft 305 kts 243°
2026-05-04 16:18 31.06137 103.93858 10382 ft 300 kts 243°
2026-05-04 16:19 31.03383 103.87579 9398 ft 280 kts 235°
2026-05-04 16:19 31.00264 103.84974 8431 ft 283 kts 202°
2026-05-04 16:20 30.94952 103.82550 7659 ft 263 kts 202°
2026-05-04 16:20 30.91554 103.80983 6936 ft 262 kts 200°
2026-05-04 16:21 30.87219 103.82973 6551 ft 232 kts 114°
2026-05-04 16:22 30.86384 103.86503 5989 ft 227 kts 106°
2026-05-04 16:22 30.84625 103.91554 5079 ft 220 kts 117°
2026-05-04 16:23 30.86260 103.96050 4994 ft 230 kts 23°
2026-05-04 16:24 30.91879 103.98220 5088 ft 207 kts 19°
2026-05-04 16:25 30.94547 103.99431 5083 ft 207 kts 21°
2026-05-04 16:26 30.99700 104.02289 5084 ft 207 kts 55°
2026-05-04 16:26 30.99114 104.06757 5083 ft 184 kts 125°
2026-05-04 16:27 30.97954 104.09091 5043 ft 163 kts 121°
2026-05-04 16:28 30.95968 104.11892 4404 ft 147 kts 174°
2026-05-04 16:28 30.93002 104.11065 4262 ft 148 kts 202°
2026-05-04 16:29 30.89168 104.09269 4262 ft 148 kts 202°
2026-05-04 16:30 30.86299 104.07930 4261 ft 148 kts 202°
2026-05-04 16:31 30.84383 104.07037 4264 ft 149 kts 202°
2026-05-04 16:31 30.81509 104.05697 4269 ft 148 kts 202°
2026-05-04 16:32 30.78638 104.04359 4271 ft 148 kts 201°
2026-05-04 16:33 30.76735 104.03472 4271 ft 148 kts 201°
2026-05-04 16:33 30.74806 104.02574 4273 ft 150 kts 201°
2026-05-04 16:34 30.72945 104.01708 4274 ft 139 kts 201°
2026-05-04 16:34 30.72051 104.01292 4234 ft 141 kts 201°
2026-05-04 16:35 30.69345 104.00033 3737 ft 139 kts 200°
2026-05-04 16:35 30.66668 103.98785 3202 ft 138 kts 199°
2026-05-04 16:36 30.65772 103.98387 3016 ft 138 kts 199°
2026-05-04 16:36 30.63980 103.97542 2638 ft 138 kts 199°
2026-05-04 16:37 30.62175 103.96704 2238 ft 139 kts 200°
2026-05-04 16:37 30.61265 103.96286 2037 ft 142 kts 201°
2026-05-04 16:37 30.59429 103.95431 1706 ft 141 kts 202°
2026-05-04 16:38 30.58024 103.94781 1632 ft 56 kts 201°
2026-05-04 16:39 30.57545 103.94598 1625 ft 18 kts 176°
2026-05-04 16:39 30.57428 103.94612 1621 ft 0 kts 175°
2026-05-04 16:40 30.57422 103.94613 1624 ft 3 kts 175°
2026-05-04 16:41 30.57339 103.94654 1624 ft 10 kts 128°
2026-05-04 16:41 30.57247 103.94927 1620 ft 12 kts 112°
2026-05-04 16:42 30.57162 103.95132 1621 ft 5 kts 115°
2026-05-04 16:43 30.57149 103.95172 1623 ft 0 kts 111°